Regional Weather Roundup
Issued by NWS

Home | Current Version | Previous Version | Graphics & Text | Print | Product List | Glossary On
Versions: 1 2 3 4 5 6 7 8 9 10 11 12 13 14 15 16 17 18 19 20 21 22 23 24 25 26 27 28 29 30 31 32 33 34 35 36 37 38 39 40 41 42 43 44 45 46 47 48 49 50
000
ASUS43 KMKX 221800
RWRWI

WISCONSIN REGIONAL WEATHER ROUNDUP
NATIONAL WEATHER SERVICE MILWAUKEE/SULLIVAN WI
100 PM CDT WED MAR 22 2017

NOTE: "FAIR" INDICATES FEW OR NO CLOUDS BELOW 12,000 FEET WITH NO
SIGNIFICANT WEATHER AND/OR OBSTRUCTIONS TO VISIBILITY.

WIZ001-002-006>008-014>016-023>028-221900-
NORTHWEST WISCONSIN

CITY           SKY/WX    TMP DP  RH WIND       PRES   REMARKS
SUPERIOR ARPT  CLOUDY    31  12  46 NE9       30.55F WCI  23
ASHLAND        CLOUDY    32  13  45 VRB6      30.56F WCI  26
6HR MIN TEMP:  10; 6HR MAX TEMP:  32;

HAYWARD        SUNNY     33   4  29 MISG      30.52F
6HR MIN TEMP:   8; 6HR MAX TEMP:  33;

SIREN          SUNNY     33   5  31 CALM      30.51F
CUMBERLAND     SUNNY     32   7  34 SE9       30.52F WCI  24
RICE LAKE      SUNNY     31   9  38 E6        30.55F WCI  25
CHETEK         SUNNY     32   9  37 SE8       30.54F WCI  25
LADYSMITH      SUNNY     31   7  36 SE6       30.55F WCI  26
EAU CLAIRE     NOT AVBL
MENOMONIE      SUNNY     34   6  30 SE9G16    30.55F WCI  26
NEW RICHMOND   SUNNY     33   6  31 S7        30.53F WCI  27
OSCEOLA        SUNNY     34   8  33 SE14G20   30.55F WCI  25
$$

WIZ003>005-009-010-017-018-221900-
NORTH CENTRAL WISCONSIN

CITY           SKY/WX    TMP DP  RH WIND       PRES   REMARKS
MANITOWISH WTR SUNNY     27   6  41 SE6       30.51F WCI  20
ARBOR VITAE    SUNNY     28   4  36 SE6       30.51F WCI  22
WOODRUFF       SUNNY     28   4  36 SE6       30.51F WCI  22
RHINELANDER    SUNNY     29   4  34 CALM      30.52F
6HR MIN TEMP:   7; 6HR MAX TEMP:  30; 6HR PCP: TRACE;

EAGLE RIVER    SUNNY     29   2  32 S6        30.51F WCI  22
LAND O LAKES   SUNNY     29   4  34 SE3       30.53F
PHILLIPS       SUNNY     29   7  38 E7        30.52F WCI  22
6HR MIN TEMP:   7; 6HR MAX TEMP:  29;

TOMAHAWK       SUNNY     29   6  37 S5        30.53F WCI  24
MEDFORD        SUNNY     27  10  49 S7        30.53F WCI  19
MERRILL        SUNNY     30   9  41 SW7       30.56F WCI  23
$$

WIZ029-030-035-036-043>047-221900-
CENTRAL WISCONSIN

CITY           SKY/WX    TMP DP  RH WIND       PRES   REMARKS
WAUSAU         SUNNY     29   7  39 S8        30.55F WCI  21
6HR MIN TEMP:  15; 6HR MAX TEMP:  29;

MOSINEE        SUNNY     30   7  37 VRB6      30.56F WCI  24
MARSHFIELD     SUNNY     30   9  41 SE10      30.53F WCI  21
6HR MIN TEMP:  15; 6HR MAX TEMP:  30;

STEVENS POINT  SUNNY     27   6  40 SE5       30.59F WCI  22
WAUPACA        SUNNY     33   8  35 E5        30.61F WCI  28
WAUTOMA        SUNNY     32  11  41 E8        30.59F WCI  25
6HR MIN TEMP:  12; 6HR MAX TEMP:  32;

WISC RAPIDS    SUNNY     32   5  32 SE7       30.58F WCI  26
6HR MIN TEMP:  13; 6HR MAX TEMP:  32;

CAMP DOUGLAS   NOT AVBL
$$

WIZ011>013-019>022-031-037>040-048>050-221900-
NORTHEAST WISCONSIN

CITY           SKY/WX    TMP DP  RH WIND       PRES   REMARKS
ANTIGO         SUNNY     27   7  42 CALM      30.54F
SHAWANO        SUNNY     31  11  43 N6        30.61F WCI  26
6HR MIN TEMP:  19; 6HR MAX TEMP:  31;

OCONTO         MOSUNNY   28  10  47 NE6       30.63F WCI  21
STURGEON BAY   SUNNY     27  13  55 NW3       30.62F
6HR MIN TEMP:  18; 6HR MAX TEMP:  28; 6HR PCP: TRACE;

GREEN BAY      SUNNY     31  15  52 CALM      30.61F
6HR MIN TEMP:  18; 6HR MAX TEMP:  31;

MANITOWOC      NOT AVBL
APPLETON       MOSUNNY   30   7  37 VRB3      30.58F
CLINTONVILLE   SUNNY     32   9  37 SE3       30.60F
OSHKOSH        SUNNY     29  14  53 E7        30.59F WCI  22
6HR MIN TEMP:  21; 6HR MAX TEMP:  29;

$$

WIZ032>034-041-042-053>061-221900-
SOUTHWEST WISCONSIN

CITY           SKY/WX    TMP DP  RH WIND       PRES   REMARKS
LA CROSSE      SUNNY     37   6  27 S8        30.57F WCI  31
6HR MIN TEMP:  22; 6HR MAX TEMP:  37;

SPARTA         SUNNY     34   7  32 E8        30.57F WCI  27
VIROQUA        SUNNY     32   6  33 S7        30.53F WCI  26
6HR MIN TEMP:  17; 6HR MAX TEMP:  33;

BOSCOBEL       SUNNY     37   5  26 E7G18     30.57F WCI  32
6HR MIN TEMP:  22; 6HR MAX TEMP:  39;

PRAIRIE DU CHI SUNNY     34   6  30 SE3       30.57F
PLATTEVILLE    SUNNY     34  11  38 E9        30.55F WCI  26
$$

WIZ056-057-062-063-064-067-068-221900-
SOUTH CENTRAL WISCONSIN

CITY           SKY/WX    TMP DP  RH WIND       PRES   REMARKS
REEDSBURG      SUNNY     33   9  36 E5        30.57F WCI  28
6HR MIN TEMP:  18; 6HR MAX TEMP:  33;

BARABOO/DELLS  SUNNY     31   7  36 NE7       30.57F WCI  24
LONE ROCK      NOT AVBL
MINERAL POINT  SUNNY     34   9  35 SE8       30.55F WCI  27
MADISON        MOSUNNY   33  12  41 E9        30.57F WCI  25
6HR MIN TEMP:  18; 6HR MAX TEMP:  33;

MIDDLETON      SUNNY     33  14  44 SE7       30.58F WCI  27
WATERTOWN      SUNNY     32  16  50 E7        30.58F WCI  26
MONROE         SUNNY     32  12  43 E3        30.55F
JANESVILLE     MOSUNNY   36  14  41 E12       30.56F WCI  27
$$

WIZ051-052-058>065-066-070>072-221900-
SOUTHEAST WISCONSIN

CITY           SKY/WX    TMP DP  RH WIND       PRES   REMARKS
MILWAUKEE      CLOUDY    33  16  49 NE8       30.60S WCI  26
6HR MIN TEMP:  24; 6HR MAX TEMP:  33;

WAUKESHA       MOSUNNY   30  16  55 E10       30.59F WCI  21
MILWAUKEE/TIMM MOSUNNY   30  12  47 E6        30.61F WCI  24
RACINE         CLOUDY    32  17  54 NE9       30.61F WCI  24
6HR MIN TEMP:  26; 6HR MAX TEMP:  34;

KENOSHA        MOSUNNY   33  18  53 E12       30.58F WCI  24
6HR MIN TEMP:  25; 6HR MAX TEMP:  33;

FOND DU LAC    SUNNY     31  13  47 VRB6      30.59F WCI  25
6HR MIN TEMP:  21; 6HR MAX TEMP:  32;

SHEBOYGAN      CLOUDY    28  17  63 E7        30.61F WCI  21
6HR MIN TEMP:  21; 6HR MAX TEMP:  28;

WEST BEND      MOSUNNY   30  14  51 E5        30.59F WCI  25
JUNEAU         SUNNY     31  15  52 E5        30.59F WCI  27
$$

LSZ147-162-221900-
LAKE SUPERIOR

STATION/POSITION TIME  TEMP    WIND        PRES    WAVE
                       AIR SEA DIR/SP/G            HT/PER
                 (UTC) (F)     (DEG/KT/KT) (MB)    (FT/S)
DEVILS ISLAND    1700   24      80/  8/ 10 1037.2F
PORT WING        1740   27      10/  7/ 10 1035.2F
SAXON HARBOR     1740   27      40/  9/ 10 1034.9F
$$

LMZ867-665-643>646-221900-
LAKE MICHIGAN

STATION/POSITION TIME  TEMP    WIND        PRES    WAVE
                       AIR SEA DIR/SP/G            HT/PER
                 (UTC) (F)     (DEG/KT/KT) (MB)    (FT/S)
CHAMBERS ISLAND  1740   27     350/  5/  6 1036.6F
NORTHPORT PIER   1740   24     120/  1/  2 1037.3R
SISTER BAY       1650   27      10/ 15/ 17   N/A
KEWAUNEE LAKESHO 1730   26      60/  3/  8 1036.5F
SHEBOYGAN LAKESH 1700   26      40/  7/  9 1037.8S
PORT WASHINGTON  1740   29      50/  6/  7 1037.6S
MILWAUKEE LAKESH 1730   28      60/ 10/ 12   N/A
KENOSHA   LAKESH 1700   28      40/ 10/ 13 1035.9
$$

TC  - TEMPERATURE IN CELSIUS
VSB - VISIBILITY IN STATUTE MILES
WCI - WIND CHILL INDEX
HX  - HEAT INDEX





USA.gov is the U.S. government's official web portal to all federal, state and local government web resources and services.